Time,TemperatureF,DewpointF,PressureIn,WindDirection,WindDirectionDegrees,WindSpeedMPH,WindSpeedGustMPH,Humidity,HourlyPrecipIn,Conditions,Clouds,dailyrainin,SolarRadiationWatts/m^2,SoftwareType,DateUTC
2013-03-15 00:02:00,50.9,31.9,29.98,WSW,254,3.0,9.0,48,0.00,,,0.00,0,Wunderground v.1.15,2013-03-15 06:02:00,
2013-03-15 00:08:00,50.8,31.8,29.98,South,184,3.0,9.0,48,0.00,,,0.00,0,Wunderground v.1.15,2013-03-15 06:08:00,
2013-03-15 00:13:00,50.7,31.2,29.98,SE,134,3.0,6.0,47,0.00,,,0.00,0,Wunderground v.1.15,2013-03-15 06:13:00,
2013-03-15 00:18:00,50.8,30.7,29.97,SE,140,5.0,7.0,46,0.00,,,0.00,0,Wunderground v.1.15,2013-03-15 06:18:00,
2013-03-15 00:23:00,51.0,30.9,29.97,SSE,149,6.0,8.0,46,0.00,,,0.00,0,Wunderground v.1.15,2013-03-15 06:23:00,
2013-03-15 00:28:00,51.1,31.0,29.96,NNE,18,5.0,8.0,46,0.00,,,0.00,0,Wunderground v.1.15,2013-03-15 06:28:00,
2013-03-15 00:33:00,51.2,30.6,29.96,ESE,119,4.0,5.0,45,0.00,,,0.00,0,Wunderground v.1.15,2013-03-15 06:33:00,
2013-03-15 00:39:00,51.1,31.0,29.96,WNW,288,3.0,6.0,46,0.00,,,0.00,0,Wunderground v.1.15,2013-03-15 06:39:00,
2013-03-15 00:44:00,51.0,30.4,29.95,SSE,152,4.0,7.0,45,0.00,,,0.00,0,Wunderground v.1.15,2013-03-15 06:44:00,
2013-03-15 00:49:00,51.1,29.9,29.95,NE,44,5.0,7.0,44,0.00,,,0.00,0,Wunderground v.1.15,2013-03-15 06:49:00,
2013-03-15 00:54:00,51.0,29.8,29.95,North,9,3.0,7.0,44,0.00,,,0.00,0,Wunderground v.1.15,2013-03-15 06:54:00,
2013-03-15 00:59:00,50.9,30.3,29.95,SSW,205,3.0,7.0,45,0.00,,,0.00,0,Wunderground v.1.15,2013-03-15 06:59:00,
2013-03-15 01:05:00,50.9,30.8,29.95,NW,325,3.0,8.0,46,0.00,,,0.00,0,Wunderground v.1.15,2013-03-15 07:05:00,
2013-03-15 01:11:00,50.8,29.6,29.95,East,80,3.0,6.0,44,0.00,,,0.00,0,Wunderground v.1.15,2013-03-15 07:11:00,
2013-03-15 01:17:00,50.9,29.7,29.95,ESE,123,5.0,8.0,44,0.00,,,0.00,0,Wunderground v.1.15,2013-03-15 07:17:00,
2013-03-15 01:23:00,51.0,29.8,29.94,WSW,245,5.0,7.0,44,0.00,,,0.00,0,Wunderground v.1.15,2013-03-15 07:23:00,
2013-03-15 01:29:00,51.0,29.3,29.93,ESE,114,5.0,14.0,43,0.00,,,0.00,0,Wunderground v.1.15,2013-03-15 07:29:00,
2013-03-15 01:35:00,51.0,29.3,29.94,East,89,5.0,8.0,43,0.00,,,0.00,0,Wunderground v.1.15,2013-03-15 07:35:00,
2013-03-15 01:40:00,50.9,28.0,29.94,East,92,5.0,7.0,41,0.00,,,0.00,0,Wunderground v.1.15,2013-03-15 07:40:00,
2013-03-15 01:47:00,50.8,28.5,29.95,ENE,69,5.0,10.0,42,0.00,,,0.00,0,Wunderground v.1.15,2013-03-15 07:47:00,
2013-03-15 01:53:00,50.9,28.0,29.95,ESE,113,4.0,10.0,41,0.00,,,0.00,0,Wunderground v.1.15,2013-03-15 07:53:00,
2013-03-15 01:59:00,50.8,27.9,29.95,SW,227,5.0,10.0,41,0.00,,,0.00,0,Wunderground v.1.15,2013-03-15 07:59:00,
2013-03-15 02:05:00,50.8,28.5,29.95,SSW,199,6.0,11.0,42,0.00,,,0.00,0,Wunderground v.1.15,2013-03-15 08:05:00,
2013-03-15 02:10:00,50.6,28.3,29.94,SSE,157,6.0,12.0,42,0.00,,,0.00,0,Wunderground v.1.15,2013-03-15 08:10:00,
2013-03-15 02:16:00,50.4,27.6,29.93,East,98,6.0,12.0,41,0.00,,,0.00,0,Wunderground v.1.15,2013-03-15 08:16:00,
2013-03-15 02:22:00,50.3,28.1,29.95,SSW,211,6.0,7.0,42,0.00,,,0.00,0,Wunderground v.1.15,2013-03-15 08:22:00,
2013-03-15 02:27:00,50.1,28.4,29.95,South,169,6.0,10.0,43,0.00,,,0.00,0,Wunderground v.1.15,2013-03-15 08:27:00,
2013-03-15 02:32:00,49.9,28.8,29.94,ENE,74,6.0,11.0,44,0.00,,,0.00,0,Wunderground v.1.15,2013-03-15 08:32:00,
2013-03-15 02:38:00,49.6,28.6,29.95,WSW,240,8.0,12.0,44,0.00,,,0.00,0,Wunderground v.1.15,2013-03-15 08:38:00,
2013-03-15 02:44:00,49.5,29.0,29.95,NNE,16,7.0,16.0,45,0.00,,,0.00,0,Wunderground v.1.15,2013-03-15 08:44:00,
2013-03-15 02:50:00,49.4,28.9,29.96,NE,37,6.0,9.0,45,0.00,,,0.00,0,Wunderground v.1.15,2013-03-15 08:50:00,
2013-03-15 02:55:00,49.3,28.8,29.96,South,169,6.0,11.0,45,0.00,,,0.00,0,Wunderground v.1.15,2013-03-15 08:55:00,
2013-03-15 03:00:00,49.1,29.2,29.97,South,189,5.0,6.0,46,0.00,,,0.00,0,Wunderground v.1.15,2013-03-15 09:00:00,
2013-03-15 03:05:00,48.8,29.4,29.96,WNW,295,3.0,6.0,47,0.00,,,0.00,0,Wunderground v.1.15,2013-03-15 09:05:00,
2013-03-15 03:12:00,48.6,29.8,29.96,SW,219,4.0,8.0,48,0.00,,,0.00,0,Wunderground v.1.15,2013-03-15 09:12:00,
2013-03-15 03:17:00,48.5,29.7,29.96,South,175,3.0,8.0,48,0.00,,,0.00,0,Wunderground v.1.15,2013-03-15 09:17:00,
2013-03-15 03:23:00,48.1,29.8,29.96,WNW,300,1.0,5.0,49,0.00,,,0.00,0,Wunderground v.1.15,2013-03-15 09:23:00,
2013-03-15 03:28:00,47.8,30.0,29.97,South,191,3.0,5.0,50,0.00,,,0.00,0,Wunderground v.1.15,2013-03-15 09:28:00,
2013-03-15 03:33:00,47.6,30.3,29.96,WNW,288,3.0,5.0,51,0.00,,,0.00,0,Wunderground v.1.15,2013-03-15 09:33:00,
2013-03-15 03:39:00,47.4,30.2,29.96,NNW,342,2.0,5.0,51,0.00,,,0.00,0,Wunderground v.1.15,2013-03-15 09:39:00,
2013-03-15 03:45:00,47.4,30.2,29.96,NE,44,3.0,7.0,51,0.00,,,0.00,0,Wunderground v.1.15,2013-03-15 09:45:00,
2013-03-15 03:51:00,47.2,30.9,29.96,WNW,287,3.0,5.0,53,0.00,,,0.00,0,Wunderground v.1.15,2013-03-15 09:51:00,
2013-03-15 03:57:00,46.8,30.1,29.95,ENE,59,2.0,5.0,52,0.00,,,0.00,0,Wunderground v.1.15,2013-03-15 09:57:00,
2013-03-15 04:03:00,46.5,30.7,29.96,NNW,346,2.0,5.0,54,0.00,,,0.00,0,Wunderground v.1.15,2013-03-15 10:03:00,
2013-03-15 04:08:00,46.3,30.5,29.95,NNE,30,2.0,7.0,54,0.00,,,0.00,0,Wunderground v.1.15,2013-03-15 10:08:00,
2013-03-15 04:13:00,46.4,31.1,29.95,South,170,3.0,8.0,55,0.00,,,0.00,0,Wunderground v.1.15,2013-03-15 10:13:00,
2013-03-15 04:19:00,46.5,30.7,29.95,ESE,117,4.0,8.0,54,0.00,,,0.00,0,Wunderground v.1.15,2013-03-15 10:19:00,
2013-03-15 04:24:00,46.4,31.1,29.96,NNE,14,2.0,12.0,55,0.00,,,0.00,0,Wunderground v.1.15,2013-03-15 10:24:00,
2013-03-15 04:30:00,46.4,31.1,29.96,West,276,4.0,8.0,55,0.00,,,0.00,0,Wunderground v.1.15,2013-03-15 10:30:00,
2013-03-15 04:36:00,46.4,31.5,29.95,NNW,341,5.0,8.0,56,0.00,,,0.00,0,Wunderground v.1.15,2013-03-15 10:36:00,
2013-03-15 04:42:00,46.3,31.4,29.95,SSW,205,4.0,7.0,56,0.00,,,0.00,0,Wunderground v.1.15,2013-03-15 10:42:00,
2013-03-15 04:48:00,46.1,31.7,29.95,South,175,3.0,7.0,57,0.00,,,0.00,0,Wunderground v.1.15,2013-03-15 10:48:00,
2013-03-15 04:54:00,46.0,32.0,29.94,South,175,3.0,7.0,58,0.00,,,0.00,0,Wunderground v.1.15,2013-03-15 10:54:00,
2013-03-15 05:00:00,45.8,31.9,29.94,ENE,69,2.0,5.0,58,0.00,,,0.00,0,Wunderground v.1.15,2013-03-15 11:00:00,
2013-03-15 05:05:00,45.6,31.7,29.94,NE,44,3.0,5.0,58,0.00,,,0.00,0,Wunderground v.1.15,2013-03-15 11:05:00,
2013-03-15 05:10:00,45.4,31.9,29.95,SE,144,3.0,3.0,59,0.00,,,0.00,0,Wunderground v.1.15,2013-03-15 11:10:00,
2013-03-15 05:15:00,45.2,31.7,29.95,West,277,4.0,7.0,59,0.00,,,0.00,0,Wunderground v.1.15,2013-03-15 11:15:00,
2013-03-15 05:21:00,45.0,31.9,29.95,NW,313,2.0,5.0,60,0.00,,,0.00,0,Wunderground v.1.15,2013-03-15 11:21:00,
2013-03-15 05:27:00,45.0,31.9,29.95,North,360,2.0,5.0,60,0.00,,,0.00,0,Wunderground v.1.15,2013-03-15 11:27:00,
2013-03-15 05:33:00,45.0,31.9,29.96,NNW,343,4.0,6.0,60,0.00,,,0.00,0,Wunderground v.1.15,2013-03-15 11:33:00,
2013-03-15 05:38:00,45.1,32.0,29.96,NE,44,3.0,6.0,60,0.00,,,0.00,0,Wunderground v.1.15,2013-03-15 11:38:00,
2013-03-15 05:44:00,45.2,32.5,29.97,East,84,2.0,5.0,61,0.00,,,0.00,0,Wunderground v.1.15,2013-03-15 11:44:00,
2013-03-15 05:50:00,45.1,32.4,29.97,ENE,75,1.0,1.0,61,0.00,,,0.00,0,Wunderground v.1.15,2013-03-15 11:50:00,
2013-03-15 05:56:00,45.0,32.3,29.97,North,9,0.0,5.0,61,0.00,,,0.00,0,Wunderground v.1.15,2013-03-15 11:56:00,
2013-03-15 06:02:00,44.8,32.6,29.97,NNW,333,0.0,5.0,62,0.00,,,0.00,0,Wunderground v.1.15,2013-03-15 12:02:00,
2013-03-15 06:07:00,44.7,32.5,29.98,WSW,240,2.0,5.0,62,0.00,,,0.00,0,Wunderground v.1.15,2013-03-15 12:07:00,
2013-03-15 06:12:00,44.6,32.8,29.98,ENE,75,2.0,5.0,63,0.00,,,0.00,0,Wunderground v.1.15,2013-03-15 12:12:00,
2013-03-15 06:18:00,44.5,32.7,29.98,SSE,159,2.0,10.0,63,0.00,,,0.00,0,Wunderground v.1.15,2013-03-15 12:18:00,
2013-03-15 06:23:00,44.5,32.7,29.98,SSW,194,4.0,5.0,63,0.00,,,0.00,0,Wunderground v.1.15,2013-03-15 12:23:00,
2013-03-15 06:29:00,44.6,32.8,29.98,ENE,62,2.0,5.0,63,0.00,,,0.00,0,Wunderground v.1.15,2013-03-15 12:29:00,
2013-03-15 06:34:00,44.6,32.8,29.98,SSW,205,3.0,6.0,63,0.00,,,0.00,0,Wunderground v.1.15,2013-03-15 12:34:00,
2013-03-15 06:40:00,44.6,32.8,29.98,SSW,202,2.0,2.0,63,0.00,,,0.00,0,Wunderground v.1.15,2013-03-15 12:40:00,
2013-03-15 06:47:00,44.3,32.9,29.98,ESE,119,1.0,7.0,64,0.00,,,0.00,0,Wunderground v.1.15,2013-03-15 12:47:00,
2013-03-15 06:52:00,44.3,32.9,29.98,NNW,348,2.0,5.0,64,0.00,,,0.00,0,Wunderground v.1.15,2013-03-15 12:52:00,
2013-03-15 06:57:00,44.2,32.8,29.98,NE,34,3.0,5.0,64,0.00,,,0.00,0,Wunderground v.1.15,2013-03-15 12:57:00,
2013-03-15 07:03:00,44.2,32.8,29.98,SSE,149,3.0,7.0,64,0.00,,,0.00,0,Wunderground v.1.15,2013-03-15 13:03:00,
2013-03-15 07:08:00,44.5,32.7,29.99,West,260,4.0,7.0,63,0.00,,,0.00,0,Wunderground v.1.15,2013-03-15 13:08:00,
2013-03-15 07:14:00,44.7,32.9,29.99,East,92,3.0,5.0,63,0.00,,,0.00,0,Wunderground v.1.15,2013-03-15 13:14:00,
2013-03-15 07:19:00,44.7,32.9,30.00,SSE,168,3.0,7.0,63,0.00,,,0.00,0,Wunderground v.1.15,2013-03-15 13:19:00,
2013-03-15 07:24:00,44.7,32.9,29.99,ESE,107,3.0,5.0,63,0.00,,,0.00,0,Wunderground v.1.15,2013-03-15 13:24:00,
2013-03-15 07:30:00,44.7,32.9,30.00,ENE,57,2.0,11.0,63,0.00,,,0.00,0,Wunderground v.1.15,2013-03-15 13:30:00,
2013-03-15 07:35:00,44.9,33.1,30.00,ENE,58,4.0,11.0,63,0.00,,,0.00,0,Wunderground v.1.15,2013-03-15 13:35:00,
2013-03-15 07:41:00,44.9,33.1,30.00,East,101,3.0,5.0,63,0.00,,,0.00,0,Wunderground v.1.15,2013-03-15 13:41:00,
2013-03-15 07:47:00,44.6,33.2,30.00,East,92,2.0,11.0,64,0.00,,,0.00,0,Wunderground v.1.15,2013-03-15 13:47:00,
2013-03-15 07:52:00,44.6,32.8,30.00,NNE,25,4.0,5.0,63,0.00,,,0.00,0,Wunderground v.1.15,2013-03-15 13:52:00,
2013-03-15 07:58:00,44.5,33.1,30.01,SSW,211,1.0,5.0,64,0.00,,,0.00,0,Wunderground v.1.15,2013-03-15 13:58:00,
2013-03-15 08:03:00,44.4,33.0,30.01,East,96,1.0,5.0,64,0.00,,,0.00,0,Wunderground v.1.15,2013-03-15 14:03:00,
2013-03-15 08:09:00,44.3,32.9,30.01,SE,137,2.0,8.0,64,0.00,,,0.00,0,Wunderground v.1.15,2013-03-15 14:09:00,
2013-03-15 08:15:00,44.3,33.3,30.01,SSE,164,3.0,6.0,65,0.00,,,0.00,0,Wunderground v.1.15,2013-03-15 14:15:00,
2013-03-15 08:22:00,44.3,33.3,30.01,South,189,2.0,5.0,65,0.00,,,0.00,0,Wunderground v.1.15,2013-03-15 14:22:00,
2013-03-15 08:28:00,44.3,33.3,30.01,West,264,2.0,7.0,65,0.00,,,0.00,5,Wunderground v.1.15,2013-03-15 14:28:00,
2013-03-15 08:34:00,44.3,33.3,30.01,South,182,2.0,5.0,65,0.00,,,0.00,5,Wunderground v.1.15,2013-03-15 14:34:00,
2013-03-15 08:39:00,44.3,33.3,30.01,WSW,244,2.0,5.0,65,0.00,,,0.00,7,Wunderground v.1.15,2013-03-15 14:39:00,
2013-03-15 08:45:00,44.2,33.2,30.01,SW,219,2.0,7.0,65,0.00,,,0.00,11,Wunderground v.1.15,2013-03-15 14:45:00,
2013-03-15 08:50:00,44.2,33.2,30.01,West,272,2.0,2.0,65,0.00,,,0.00,12,Wunderground v.1.15,2013-03-15 14:50:00,
2013-03-15 08:57:00,44.2,33.2,30.01,SE,140,2.0,9.0,65,0.00,,,0.00,23,Wunderground v.1.15,2013-03-15 14:57:00,
2013-03-15 09:02:00,44.2,33.2,30.00,SSE,163,3.0,8.0,65,0.00,,,0.00,42,Wunderground v.1.15,2013-03-15 15:02:00,
2013-03-15 09:08:00,44.3,33.3,30.00,SW,228,4.0,8.0,65,0.00,,,0.00,53,Wunderground v.1.15,2013-03-15 15:08:00,
2013-03-15 09:14:00,44.4,33.4,30.01,SSE,161,3.0,6.0,65,0.00,,,0.00,60,Wunderground v.1.15,2013-03-15 15:14:00,
2013-03-15 09:19:00,44.6,33.6,30.00,SSW,192,3.0,6.0,65,0.00,,,0.00,77,Wunderground v.1.15,2013-03-15 15:19:00,
2013-03-15 09:25:00,44.7,33.6,30.01,WSW,244,3.0,12.0,65,0.00,,,0.00,95,Wunderground v.1.15,2013-03-15 15:25:00,
2013-03-15 09:30:00,44.9,33.5,30.01,West,270,3.0,3.0,64,0.00,,,0.00,69,Wunderground v.1.15,2013-03-15 15:30:00,
2013-03-15 09:36:00,45.0,33.5,30.02,SW,227,2.0,6.0,64,0.00,,,0.00,63,Wunderground v.1.15,2013-03-15 15:36:00,
2013-03-15 09:42:00,45.0,33.5,30.02,South,183,3.0,8.0,64,0.00,,,0.00,44,Wunderground v.1.15,2013-03-15 15:42:00,
2013-03-15 09:47:00,45.0,33.5,30.02,SSE,155,3.0,8.0,64,0.00,,,0.00,44,Wunderground v.1.15,2013-03-15 15:47:00,
2013-03-15 09:53:00,45.0,33.9,30.02,SE,130,3.0,8.0,65,0.00,,,0.00,74,Wunderground v.1.15,2013-03-15 15:53:00,
2013-03-15 09:59:00,44.9,33.8,30.02,South,176,3.0,8.0,65,0.00,,,0.00,91,Wunderground v.1.15,2013-03-15 15:59:00,
2013-03-15 10:05:00,45.0,33.9,30.02,SW,218,4.0,7.0,65,0.00,,,0.00,109,Wunderground v.1.15,2013-03-15 16:05:00,
2013-03-15 10:12:00,45.2,34.1,30.02,ENE,61,4.0,9.0,65,0.00,,,0.00,120,Wunderground v.1.15,2013-03-15 16:12:00,
2013-03-15 10:17:00,45.3,34.2,30.02,SSE,165,4.0,9.0,65,0.00,,,0.00,107,Wunderground v.1.15,2013-03-15 16:17:00,
2013-03-15 10:23:00,45.4,34.3,30.02,SSW,199,3.0,5.0,65,0.00,,,0.00,62,Wunderground v.1.15,2013-03-15 16:23:00,
2013-03-15 10:29:00,45.4,34.3,30.03,WNW,288,2.0,5.0,65,0.00,,,0.00,76,Wunderground v.1.15,2013-03-15 16:29:00,
2013-03-15 10:34:00,45.4,34.3,30.03,West,275,2.0,6.0,65,0.00,,,0.00,86,Wunderground v.1.15,2013-03-15 16:34:00,
2013-03-15 10:40:00,45.4,34.3,30.03,SSW,210,2.0,5.0,65,0.00,,,0.00,113,Wunderground v.1.15,2013-03-15 16:40:00,
2013-03-15 10:45:00,45.5,34.0,30.03,SSW,199,3.0,8.0,64,0.00,,,0.00,167,Wunderground v.1.15,2013-03-15 16:45:00,
2013-03-15 10:51:00,45.6,34.1,30.04,South,178,3.0,6.0,64,0.00,,,0.00,93,Wunderground v.1.15,2013-03-15 16:51:00,
2013-03-15 10:57:00,45.7,34.2,30.04,West,265,3.0,8.0,64,0.00,,,0.00,132,Wunderground v.1.15,2013-03-15 16:57:00,
2013-03-15 11:02:00,45.8,34.3,30.04,ESE,120,4.0,6.0,64,0.00,,,0.00,227,Wunderground v.1.15,2013-03-15 17:02:00,
2013-03-15 11:07:00,46.1,34.6,30.04,SSW,207,3.0,6.0,64,0.00,,,0.00,225,Wunderground v.1.15,2013-03-15 17:07:00,
2013-03-15 11:12:00,46.3,34.4,30.04,South,185,3.0,6.0,63,0.00,,,0.00,200,Wunderground v.1.15,2013-03-15 17:12:00,
2013-03-15 11:17:00,46.4,34.5,30.04,SSW,211,4.0,7.0,63,0.00,,,0.00,178,Wunderground v.1.15,2013-03-15 17:17:00,
2013-03-15 11:22:00,46.4,34.5,30.05,West,260,5.0,10.0,63,0.00,,,0.00,153,Wunderground v.1.15,2013-03-15 17:22:00,
2013-03-15 11:27:00,46.4,34.5,30.05,NNW,343,4.0,10.0,63,0.00,,,0.00,202,Wunderground v.1.15,2013-03-15 17:27:00,
2013-03-15 11:37:00,47.2,34.4,30.04,SE,136,5.0,12.0,61,0.00,,,0.00,717,Wunderground v.1.15,2013-03-15 17:37:00,
2013-03-15 11:43:00,47.7,34.5,30.05,ENE,75,5.0,5.0,60,0.00,,,0.00,248,Wunderground v.1.15,2013-03-15 17:43:00,
2013-03-15 11:49:00,47.8,34.6,30.05,SSE,158,5.0,10.0,60,0.00,,,0.00,304,Wunderground v.1.15,2013-03-15 17:49:00,
2013-03-15 11:55:00,48.1,34.4,30.05,WSW,248,5.0,9.0,59,0.00,,,0.00,227,Wunderground v.1.15,2013-03-15 17:55:00,
2013-03-15 12:00:00,48.1,34.4,30.04,SE,132,5.0,12.0,59,0.00,,,0.00,290,Wunderground v.1.15,2013-03-15 18:00:00,
2013-03-15 12:06:00,48.4,34.7,30.05,East,90,6.0,12.0,59,0.00,,,0.00,693,Wunderground v.1.15,2013-03-15 18:06:00,
2013-03-15 12:12:00,48.5,34.4,30.05,NW,308,5.0,6.0,58,0.00,,,0.00,216,Wunderground v.1.15,2013-03-15 18:12:00,
2013-03-15 12:18:00,48.6,34.0,30.05,ESE,113,4.0,6.0,57,0.00,,,0.00,236,Wunderground v.1.15,2013-03-15 18:18:00,
2013-03-15 12:24:00,48.9,34.3,30.05,SSE,164,4.0,5.0,57,0.00,,,0.00,278,Wunderground v.1.15,2013-03-15 18:24:00,
2013-03-15 12:30:00,48.8,34.2,30.06,West,261,4.0,7.0,57,0.00,,,0.00,200,Wunderground v.1.15,2013-03-15 18:30:00,
2013-03-15 12:35:00,48.6,34.0,30.06,South,191,4.0,11.0,57,0.00,,,0.00,225,Wunderground v.1.15,2013-03-15 18:35:00,
2013-03-15 12:41:00,48.2,33.7,30.06,NW,307,5.0,14.0,57,0.00,,,0.00,283,Wunderground v.1.15,2013-03-15 18:41:00,
2013-03-15 12:47:00,48.0,33.9,30.06,South,184,5.0,14.0,58,0.00,,,0.00,214,Wunderground v.1.15,2013-03-15 18:47:00,
2013-03-15 12:52:00,48.0,33.9,30.06,SW,215,3.0,5.0,58,0.00,,,0.00,171,Wunderground v.1.15,2013-03-15 18:52:00,
2013-03-15 12:58:00,47.9,33.4,30.06,NE,36,4.0,8.0,57,0.00,,,0.00,181,Wunderground v.1.15,2013-03-15 18:58:00,
2013-03-15 13:03:00,47.6,33.5,30.06,ENE,67,5.0,5.0,58,0.00,,,0.00,183,Wunderground v.1.15,2013-03-15 19:03:00,
2013-03-15 13:08:00,47.5,33.4,30.06,SW,217,5.0,5.0,58,0.00,,,0.00,155,Wunderground v.1.15,2013-03-15 19:08:00,
2013-03-15 13:13:00,47.5,33.4,30.06,SSE,157,3.0,6.0,58,0.00,,,0.00,169,Wunderground v.1.15,2013-03-15 19:13:00,
2013-03-15 13:19:00,47.4,33.4,30.06,ESE,107,2.0,6.0,58,0.00,,,0.00,120,Wunderground v.1.15,2013-03-15 19:19:00,
2013-03-15 13:24:00,47.4,33.4,30.05,SE,130,2.0,6.0,58,0.00,,,0.00,102,Wunderground v.1.15,2013-03-15 19:24:00,
2013-03-15 13:29:00,47.4,32.9,30.05,SSW,194,3.0,7.0,57,0.00,,,0.00,121,Wunderground v.1.15,2013-03-15 19:29:00,
2013-03-15 13:34:00,47.3,33.3,30.05,WSW,241,3.0,5.0,58,0.00,,,0.00,158,Wunderground v.1.15,2013-03-15 19:34:00,
2013-03-15 13:40:00,47.4,33.4,30.05,SW,236,2.0,5.0,58,0.00,,,0.00,308,Wunderground v.1.15,2013-03-15 19:40:00,
2013-03-15 13:47:00,47.9,32.9,30.05,WSW,248,3.0,11.0,56,0.00,,,0.00,193,Wunderground v.1.15,2013-03-15 19:47:00,
2013-03-15 13:52:00,48.1,33.1,30.04,South,184,2.0,7.0,56,0.00,,,0.00,151,Wunderground v.1.15,2013-03-15 19:52:00,
2013-03-15 13:58:00,48.1,32.7,30.05,WSW,240,2.0,9.0,55,0.00,,,0.00,172,Wunderground v.1.15,2013-03-15 19:58:00,
2013-03-15 14:04:00,48.2,32.3,30.05,SE,132,2.0,6.0,54,0.00,,,0.00,163,Wunderground v.1.15,2013-03-15 20:04:00,
2013-03-15 14:09:00,48.2,32.3,30.04,NE,55,2.0,6.0,54,0.00,,,0.00,81,Wunderground v.1.15,2013-03-15 20:09:00,
2013-03-15 14:15:00,48.1,32.2,30.04,NE,50,3.0,5.0,54,0.00,,,0.00,155,Wunderground v.1.15,2013-03-15 20:15:00,
2013-03-15 14:20:00,48.2,31.9,30.04,SSE,153,3.0,5.0,53,0.00,,,0.00,243,Wunderground v.1.15,2013-03-15 20:20:00,
2013-03-15 14:26:00,48.4,32.0,30.04,NNW,348,3.0,5.0,53,0.00,,,0.00,142,Wunderground v.1.15,2013-03-15 20:26:00,
2013-03-15 14:32:00,48.5,31.7,30.03,ENE,64,2.0,6.0,52,0.00,,,0.00,144,Wunderground v.1.15,2013-03-15 20:32:00,
2013-03-15 14:37:00,48.5,31.7,30.03,ENE,61,2.0,6.0,52,0.00,,,0.00,84,Wunderground v.1.15,2013-03-15 20:37:00,
2013-03-15 14:43:00,48.4,32.5,30.03,East,101,3.0,5.0,54,0.00,,,0.00,132,Wunderground v.1.15,2013-03-15 20:43:00,
2013-03-15 14:49:00,48.4,32.5,30.03,ESE,103,3.0,7.0,54,0.00,,,0.00,137,Wunderground v.1.15,2013-03-15 20:49:00,
2013-03-15 14:55:00,48.4,32.5,30.03,East,95,4.0,5.0,54,0.00,,,0.00,105,Wunderground v.1.15,2013-03-15 20:55:00,
2013-03-15 15:01:00,48.5,32.1,30.03,West,276,2.0,6.0,53,0.00,,,0.00,109,Wunderground v.1.15,2013-03-15 21:01:00,
2013-03-15 15:07:00,48.5,32.6,30.03,ESE,105,2.0,8.0,54,0.00,,,0.00,128,Wunderground v.1.15,2013-03-15 21:07:00,
2013-03-15 15:13:00,48.5,32.1,30.02,South,183,4.0,6.0,53,0.00,,,0.00,172,Wunderground v.1.15,2013-03-15 21:13:00,
2013-03-15 15:18:00,48.6,32.2,30.03,SE,135,2.0,6.0,53,0.00,,,0.00,169,Wunderground v.1.15,2013-03-15 21:18:00,
2013-03-15 15:24:00,48.8,31.9,30.02,North,360,2.0,7.0,52,0.00,,,0.00,183,Wunderground v.1.15,2013-03-15 21:24:00,
2013-03-15 15:29:00,48.8,31.9,30.02,SSE,165,3.0,7.0,52,0.00,,,0.00,132,Wunderground v.1.15,2013-03-15 21:29:00,
2013-03-15 15:35:00,49.0,32.1,30.02,ESE,106,3.0,9.0,52,0.00,,,0.00,186,Wunderground v.1.15,2013-03-15 21:35:00,
2013-03-15 15:42:00,49.1,31.7,30.02,NE,55,1.0,8.0,51,0.00,,,0.00,144,Wunderground v.1.15,2013-03-15 21:42:00,
2013-03-15 15:48:00,49.2,31.8,30.02,WNW,298,2.0,8.0,51,0.00,,,0.00,120,Wunderground v.1.15,2013-03-15 21:48:00,
2013-03-15 15:53:00,49.2,31.8,30.02,NNW,329,1.0,5.0,51,0.00,,,0.00,160,Wunderground v.1.15,2013-03-15 21:53:00,
2013-03-15 15:59:00,49.2,31.3,30.02,ENE,61,1.0,5.0,50,0.00,,,0.00,149,Wunderground v.1.15,2013-03-15 21:59:00,
2013-03-15 16:04:00,49.3,30.9,30.02,SW,223,2.0,8.0,49,0.00,,,0.00,163,Wunderground v.1.15,2013-03-15 22:04:00,
2013-03-15 16:09:00,49.4,31.0,30.02,North,11,4.0,8.0,49,0.00,,,0.00,111,Wunderground v.1.15,2013-03-15 22:09:00,
2013-03-15 16:15:00,49.4,31.0,30.02,West,267,3.0,5.0,49,0.00,,,0.00,84,Wunderground v.1.15,2013-03-15 22:15:00,
2013-03-15 16:22:00,49.3,31.4,30.02,SSE,150,1.0,5.0,50,0.00,,,0.00,142,Wunderground v.1.15,2013-03-15 22:22:00,
2013-03-15 16:27:00,49.3,31.4,30.03,South,171,1.0,6.0,50,0.00,,,0.00,176,Wunderground v.1.15,2013-03-15 22:27:00,
2013-03-15 16:33:00,49.3,30.9,30.02,WNW,287,2.0,9.0,49,0.00,,,0.00,130,Wunderground v.1.15,2013-03-15 22:33:00,
2013-03-15 16:39:00,49.3,31.4,30.02,West,259,2.0,9.0,50,0.00,,,0.00,130,Wunderground v.1.15,2013-03-15 22:39:00,
2013-03-15 16:45:00,49.4,31.0,30.02,NW,321,2.0,5.0,49,0.00,,,0.00,141,Wunderground v.1.15,2013-03-15 22:45:00,
2013-03-15 16:51:00,49.4,30.0,30.02,SW,232,3.0,5.0,47,0.00,,,0.00,113,Wunderground v.1.15,2013-03-15 22:51:00,
2013-03-15 16:56:00,49.4,30.5,30.02,South,186,2.0,5.0,48,0.00,,,0.00,98,Wunderground v.1.15,2013-03-15 22:56:00,
2013-03-15 17:02:00,49.4,31.0,30.02,NW,326,0.0,5.0,49,0.00,,,0.00,165,Wunderground v.1.15,2013-03-15 23:02:00,
2013-03-15 17:08:00,49.4,30.5,30.02,NW,325,2.0,9.0,48,0.00,,,0.00,148,Wunderground v.1.15,2013-03-15 23:08:00,
2013-03-15 17:13:00,49.5,30.6,30.02,WNW,295,3.0,5.0,48,0.00,,,0.00,158,Wunderground v.1.15,2013-03-15 23:13:00,
2013-03-15 17:19:00,49.7,30.8,30.02,West,267,2.0,5.0,48,0.00,,,0.00,151,Wunderground v.1.15,2013-03-15 23:19:00,
2013-03-15 17:25:00,49.7,30.3,30.02,WNW,292,3.0,6.0,47,0.00,,,0.00,139,Wunderground v.1.15,2013-03-15 23:25:00,
2013-03-15 17:32:00,49.7,30.3,30.02,West,278,3.0,5.0,47,0.00,,,0.00,190,Wunderground v.1.15,2013-03-15 23:32:00,
2013-03-15 17:37:00,49.6,29.6,30.02,NNW,344,3.0,5.0,46,0.00,,,0.00,107,Wunderground v.1.15,2013-03-15 23:37:00,
2013-03-15 17:43:00,49.5,30.1,30.02,NW,317,2.0,5.0,47,0.00,,,0.00,105,Wunderground v.1.15,2013-03-15 23:43:00,
2013-03-15 17:49:00,49.4,30.5,30.02,North,10,1.0,5.0,48,0.00,,,0.00,72,Wunderground v.1.15,2013-03-15 23:49:00,
2013-03-15 17:55:00,49.4,30.5,30.02,East,79,1.0,5.0,48,0.00,,,0.00,86,Wunderground v.1.15,2013-03-15 23:55:00,
2013-03-15 18:01:00,49.2,31.3,30.02,South,190,1.0,5.0,50,0.00,,,0.00,65,Wunderground v.1.15,2013-03-16 00:01:00,
2013-03-15 18:07:00,49.0,31.6,30.02,ENE,61,0.0,5.0,51,0.00,,,0.00,46,Wunderground v.1.15,2013-03-16 00:07:00,
2013-03-15 18:12:00,48.7,31.8,30.02,SSW,194,1.0,5.0,52,0.00,,,0.00,63,Wunderground v.1.15,2013-03-16 00:12:00,
2013-03-15 18:18:00,48.4,32.0,30.02,ENE,75,2.0,5.0,53,0.00,,,0.00,62,Wunderground v.1.15,2013-03-16 00:18:00,
2013-03-15 18:24:00,48.2,31.9,30.02,WNW,283,1.0,5.0,53,0.00,,,0.00,81,Wunderground v.1.15,2013-03-16 00:24:00,
2013-03-15 18:29:00,48.0,32.1,30.02,SSW,202,0.0,5.0,54,0.00,,,0.00,83,Wunderground v.1.15,2013-03-16 00:29:00,
2013-03-15 18:34:00,47.8,32.4,30.02,South,173,0.0,5.0,55,0.00,,,0.00,79,Wunderground v.1.15,2013-03-16 00:34:00,
2013-03-15 18:40:00,47.7,32.8,30.02,WSW,244,1.0,5.0,56,0.00,,,0.00,49,Wunderground v.1.15,2013-03-16 00:40:00,
2013-03-15 18:46:00,47.5,33.0,30.02,WSW,237,1.0,5.0,57,0.00,,,0.00,37,Wunderground v.1.15,2013-03-16 00:46:00,
2013-03-15 18:52:00,47.1,33.5,30.02,SSE,164,2.0,5.0,59,0.00,,,0.00,51,Wunderground v.1.15,2013-03-16 00:52:00,
2013-03-15 18:57:00,46.8,33.6,30.02,SSW,209,2.0,5.0,60,0.00,,,0.00,33,Wunderground v.1.15,2013-03-16 00:57:00,
2013-03-15 19:03:00,46.6,33.9,30.02,South,183,2.0,5.0,61,0.00,,,0.00,23,Wunderground v.1.15,2013-03-16 01:03:00,
2013-03-15 19:08:00,46.4,33.7,30.02,South,188,2.0,5.0,61,0.00,,,0.00,18,Wunderground v.1.15,2013-03-16 01:08:00,
2013-03-15 19:14:00,46.1,33.8,30.02,NNE,28,1.0,5.0,62,0.00,,,0.00,12,Wunderground v.1.15,2013-03-16 01:14:00,
2013-03-15 19:20:00,45.8,33.5,30.02,ESE,118,1.0,1.0,62,0.00,,,0.00,11,Wunderground v.1.15,2013-03-16 01:20:00,
2013-03-15 19:27:00,45.4,33.5,30.02,SW,229,0.0,5.0,63,0.00,,,0.00,12,Wunderground v.1.15,2013-03-16 01:27:00,
2013-03-15 19:33:00,45.0,33.2,30.02,SW,229,0.0,5.0,63,0.00,,,0.00,7,Wunderground v.1.15,2013-03-16 01:33:00,
2013-03-15 19:39:00,44.4,33.0,30.02,SSW,195,0.0,5.0,64,0.00,,,0.00,0,Wunderground v.1.15,2013-03-16 01:39:00,
2013-03-15 19:45:00,43.6,33.0,30.02,WSW,238,1.0,5.0,66,0.00,,,0.00,0,Wunderground v.1.15,2013-03-16 01:45:00,
2013-03-15 19:50:00,43.1,32.9,30.02,SSE,163,1.0,1.0,67,0.00,,,0.00,0,Wunderground v.1.15,2013-03-16 01:50:00,
2013-03-15 19:56:00,42.6,32.8,30.02,SSE,163,1.0,5.0,68,0.00,,,0.00,0,Wunderground v.1.15,2013-03-16 01:56:00,
2013-03-15 20:01:00,41.9,32.5,30.02,SSW,213,1.0,5.0,69,0.00,,,0.00,0,Wunderground v.1.15,2013-03-16 02:01:00,
2013-03-15 20:07:00,41.5,32.4,30.02,SW,221,1.0,5.0,70,0.00,,,0.00,0,Wunderground v.1.15,2013-03-16 02:07:00,
2013-03-15 20:13:00,41.1,32.4,30.03,WSW,252,1.0,5.0,71,0.00,,,0.00,0,Wunderground v.1.15,2013-03-16 02:13:00,
2013-03-15 20:19:00,40.6,32.3,30.03,WNW,292,1.0,5.0,72,0.00,,,0.00,0,Wunderground v.1.15,2013-03-16 02:19:00,
2013-03-15 20:25:00,40.0,32.4,30.03,WNW,288,1.0,5.0,74,0.00,,,0.00,0,Wunderground v.1.15,2013-03-16 02:25:00,
2013-03-15 20:32:00,39.3,32.0,30.03,WNW,289,1.0,5.0,75,0.00,,,0.00,0,Wunderground v.1.15,2013-03-16 02:32:00,
2013-03-15 20:37:00,38.8,31.9,30.03,WNW,287,0.0,5.0,76,0.00,,,0.00,0,Wunderground v.1.15,2013-03-16 02:37:00,
2013-03-15 20:43:00,38.3,31.7,30.03,SSW,195,1.0,5.0,77,0.00,,,0.00,0,Wunderground v.1.15,2013-03-16 02:43:00,
2013-03-15 20:49:00,38.1,31.8,30.03,SW,224,1.0,5.0,78,0.00,,,0.00,0,Wunderground v.1.15,2013-03-16 02:49:00,
2013-03-15 20:54:00,38.1,32.2,30.03,NW,304,1.0,5.0,79,0.00,,,0.00,0,Wunderground v.1.15,2013-03-16 02:54:00,
2013-03-15 21:00:00,38.2,32.3,30.03,WNW,296,1.0,5.0,79,0.00,,,0.00,0,Wunderground v.1.15,2013-03-16 03:00:00,
2013-03-15 21:05:00,38.3,32.4,30.03,WNW,284,1.0,7.0,79,0.00,,,0.00,0,Wunderground v.1.15,2013-03-16 03:05:00,
2013-03-15 21:10:00,38.6,32.3,30.03,West,269,1.0,5.0,78,0.00,,,0.00,0,Wunderground v.1.15,2013-03-16 03:10:00,
2013-03-15 21:16:00,38.9,32.6,30.03,West,259,2.0,7.0,78,0.00,,,0.00,0,Wunderground v.1.15,2013-03-16 03:16:00,
2013-03-15 21:22:00,38.9,32.3,30.02,WSW,247,1.0,5.0,77,0.00,,,0.00,0,Wunderground v.1.15,2013-03-16 03:22:00,
2013-03-15 21:27:00,39.1,32.8,30.03,ESE,119,1.0,5.0,78,0.00,,,0.00,0,Wunderground v.1.15,2013-03-16 03:27:00,
2013-03-15 21:33:00,39.5,32.9,30.03,SW,229,2.0,5.0,77,0.00,,,0.00,0,Wunderground v.1.15,2013-03-16 03:33:00,
2013-03-15 21:39:00,39.9,32.9,30.03,SW,230,3.0,5.0,76,0.00,,,0.00,0,Wunderground v.1.15,2013-03-16 03:39:00,
2013-03-15 21:44:00,40.3,33.0,30.03,SSW,209,2.0,5.0,75,0.00,,,0.00,0,Wunderground v.1.15,2013-03-16 03:44:00,
2013-03-15 21:50:00,40.6,33.3,30.03,South,182,1.0,5.0,75,0.00,,,0.00,0,Wunderground v.1.15,2013-03-16 03:50:00,
2013-03-15 21:55:00,40.8,33.5,30.03,SW,215,2.0,8.0,75,0.00,,,0.00,0,Wunderground v.1.15,2013-03-16 03:55:00,
2013-03-15 22:00:00,41.1,33.4,30.03,WSW,242,2.0,5.0,74,0.00,,,0.00,0,Wunderground v.1.15,2013-03-16 04:00:00,
2013-03-15 22:02:00,41.1,33.4,30.03,WSW,242,2.0,5.0,74,0.00,,,0.00,0,Wunderground v.1.15,2013-03-16 04:02:00,
2013-03-15 22:05:00,41.3,33.6,30.03,South,171,2.0,6.0,74,0.00,,,0.00,0,Wunderground v.1.15,2013-03-16 04:05:00,
2013-03-15 22:11:00,41.3,33.6,30.03,South,179,2.0,5.0,74,0.00,,,0.00,0,Wunderground v.1.15,2013-03-16 04:11:00,
2013-03-15 22:12:00,41.3,33.3,30.02,SSE,165,2.0,5.0,73,0.00,,,0.00,0,Wunderground v.1.15,2013-03-16 04:12:00,
2013-03-15 22:18:00,41.4,33.4,30.02,WNW,288,2.0,5.0,73,0.00,,,0.00,0,Wunderground v.1.15,2013-03-16 04:18:00,
2013-03-15 22:24:00,41.1,33.4,30.03,West,276,2.0,5.0,74,0.00,,,0.00,0,Wunderground v.1.15,2013-03-16 04:24:00,
2013-03-15 22:29:00,41.1,33.4,30.03,SW,230,2.0,5.0,74,0.00,,,0.00,0,Wunderground v.1.15,2013-03-16 04:29:00,
2013-03-15 22:34:00,41.1,33.4,30.03,West,271,1.0,5.0,74,0.00,,,0.00,0,Wunderground v.1.15,2013-03-16 04:34:00,
2013-03-15 22:39:00,41.1,33.4,30.03,South,171,2.0,5.0,74,0.00,,,0.00,0,Wunderground v.1.15,2013-03-16 04:39:00,
2013-03-15 22:45:00,41.0,33.3,30.03,West,269,2.0,5.0,74,0.00,,,0.00,0,Wunderground v.1.15,2013-03-16 04:45:00,
2013-03-15 22:50:00,40.9,33.2,30.02,West,261,1.0,6.0,74,0.00,,,0.00,0,Wunderground v.1.15,2013-03-16 04:50:00,
2013-03-15 22:55:00,40.8,33.5,30.02,SSW,193,1.0,6.0,75,0.00,,,0.00,0,Wunderground v.1.15,2013-03-16 04:55:00,
2013-03-15 23:02:00,40.6,33.0,30.02,West,268,1.0,5.0,74,0.00,,,0.00,0,Wunderground v.1.15,2013-03-16 05:02:00,
2013-03-15 23:08:00,40.0,32.7,30.02,West,265,1.0,5.0,75,0.00,,,0.00,0,Wunderground v.1.15,2013-03-16 05:08:00,
2013-03-15 23:14:00,39.5,32.6,30.02,WNW,286,1.0,5.0,76,0.00,,,0.00,0,Wunderground v.1.15,2013-03-16 05:14:00,
2013-03-15 23:19:00,39.2,32.9,30.02,SSE,155,1.0,5.0,78,0.00,,,0.00,0,Wunderground v.1.15,2013-03-16 05:19:00,
2013-03-15 23:24:00,38.9,32.6,30.02,West,267,1.0,5.0,78,0.00,,,0.00,0,Wunderground v.1.15,2013-03-16 05:24:00,
2013-03-15 23:30:00,38.6,32.6,30.02,SSW,208,1.0,1.0,79,0.00,,,0.00,0,Wunderground v.1.15,2013-03-16 05:30:00,
2013-03-15 23:35:00,38.3,32.4,30.02,WNW,295,1.0,5.0,79,0.00,,,0.00,0,Wunderground v.1.15,2013-03-16 05:35:00,
2013-03-15 23:41:00,38.1,32.5,30.01,NW,314,1.0,6.0,80,0.00,,,0.00,0,Wunderground v.1.15,2013-03-16 05:41:00,
2013-03-15 23:47:00,38.4,33.1,30.01,SSE,163,2.0,6.0,81,0.00,,,0.00,0,Wunderground v.1.15,2013-03-16 05:47:00,
2013-03-15 23:53:00,38.7,33.4,30.01,SSW,196,1.0,5.0,81,0.00,,,0.00,0,Wunderground v.1.15,2013-03-16 05:53:00,
2013-03-15 23:59:00,39.4,33.7,30.01,WSW,254,2.0,5.0,80,0.00,,,0.00,0,Wunderground v.1.15,2013-03-16 05:59:00,